If you wish to contribute or participate in the discussions about articles you are invited to join SKYbrary as a registered user

 Actions

Anvik Airport

From SKYbrary Wiki

PANV
Airport
ICAO: PANV – IATA: ANV
Summary
Name Anvik Airport
Region North America
Territory Alaska US.gif
Location , Alaska
Serving Anvik
Elevation 88.697 m
291 ft
291 ft88.697 m
Type medium airport
Coordinates 62° 38' 48.12" N, 160° 11' 27.60" W
Runways
Designator Length Width Surface ROPS
17/35 902 m2,959.318 ft
23 m75.459 ft
GVL /


METAR
Observation PANV 061456Z AUTO 31005KT 10SM -RA OVC049 07/06 A2994 RMK AO2 SLP210 P0006 60008 T00670056 55003 TSNO
Station Anvik, Anvik Airport
Date/Time 06 June 2020 14:56:00
Wind direction 310°
Wind speed 05 kts
Lowest cloud amount overcast
Temperature 6.7°C
Dew point 5.6°C
Humidity 92%
QNH hPa
Weather condition light rain